Vorticity
nan nan nan nan nan nan nan nan nan nan nan nan nan nan nan nan nan nan nan nan nan nan
nan 19 16 10 6 9 10 11 12 9 10 11 9 11 8 9 9 8 9 9 9 nan
nan 15 18 20 13 7 9 11 10 9 9 8 9 9 8 10 11 10 8 9 10 nan
nan 12 15 18 19 13 10 9 7 8 10 10 9 7 9 10 9 9 10 11 9 nan
nan 11 12 13 17 19 15 12 10 10 7 10 10 11 10 9 9 8 8 10 10 nan
nan 12 10 10 13 16 15 15 13 11 10 10 10 10 10 10 11 10 10 9 9 nan
nan 11 11 11 12 13 11 11 10 12 11 10 11 10 12 10 10 9 8 10 10 nan
nan 13 11 11 11 11 12 11 11 9 9 10 9 12 12 10 8 8 7 8 9 nan
nan 12 12 11 12 11 12 12 12 10 11 9 15 16 5 6 7 10 10 8 8 nan
nan 9 12 12 12 11 12 12 11 10 10 12 18 14 7 7 7 9 10 10 9 nan
nan 10 10 11 12 12 11 11 13 13 12 10 15 17 10 4 7 10 10 10 10 nan
nan 10 10 10 11 12 12 11 10 11 12 19 17 12 7 4 8 10 9 10 10 nan
nan 9 9 10 11 12 11 10 10 9 8 12 19 13 4 6 9 9 9 11 15 nan
nan nan nan nan nan nan nan nan nan nan nan nan nan nan nan nan nan nan nan nan nan nan
CAPE
0 0 0 0 0 0 0 0 0 0 0 0 0 0 0 0 0 0 0 0 0 0
0 0 0 0 0 0 0 0 0 0 0 0 0 0 0 0 0 0 0 0 0 0
1 0 0 0 0 0 0 0 0 0 0 0 0 0 0 0 0 0 0 0 0 0
1 0 0 0 0 0 0 0 0 0 0 0 0 0 0 0 0 0 0 0 0 0
0 0 0 0 0 0 0 0 0 0 0 0 0 0 0 0 0 0 0 0 0 0
0 0 0 0 0 0 0 0 0 0 0 0 0 0 0 0 0 0 0 0 0 0
1 1 1 1 0 0 0 0 0 0 0 0 0 0 0 0 0 0 0 0 0 0
2 2 2 1 1 0 0 0 0 0 0 0 0 0 0 0 0 0 0 0 0 0
0 0 1 1 2 2 1 0 0 0 0 0 3 17 8 3 0 0 0 0 3 6
0 0 0 1 1 2 2 1 2 1 2 2 1 28 24 12 1 0 1 2 3 3
0 0 0 0 0 1 1 1 2 1 0 2 3 38 35 16 0 1 3 4 4 0
0 0 0 0 0 0 1 1 1 2 1 0 6 39 27 4 1 3 4 5 2 1
1 0 0 0 1 1 1 2 2 2 1 7 0 24 16 4 3 3 4 4 1 10
1 0 1 0 1 1 1 2 1 2 2 1 3 8 22 11 5 6 7 4 1 0